Other Public Products
Issued by NWS Grand Forks, ND

Home | Current Version | Previous Version | Text Only | Print | Product List | Glossary Off
Versions: 1 2 3 4 5 6 7 8 9 10 11 12 13 14 15 16 17 18 19 20 21 22 23 24 25 26 27 28 29 30 31 32 33 34 35 36 37 38 39 40 41 42 43 44 45 46 47 48 49 50

000
FPUS83 KFGF 041710
OPUFGF
PRAIRIE TO PINES WEATHER ROUNDUP
NATIONAL WEATHER SERVICE EASTERN NORTH DAKOTA/GRAND FORKS ND
1200 PM CDT SAT JUL 04 2015

 **SATELLITE DATA USED TO AUGMENT SKY COVER AT AUTOMATED STATIONS**
 *****  WEATHER ACROSS EASTERN NORTH DAKOTA  *****

CITY           SKY/WX    TMP DP  RH WIND       PRES   REMARKS
GRAND FORKS    CLOUDY    80  66  62 S10       29.82F HAZE
GRAND FORKS AF SUNNY     80  68  66 S10       29.83F HAZE
GRAND CITY NWS   N/A     81 N/A N/A SW9         N/A
BUXTON         NOT AVBL
DEVILS LAKE    SUNNY     82  64  54 S13       29.79F
FARGO          SUNNY     81  69  67 S9        29.85F HAZE
WAHPETON ARPT  SUNNY     79  64  61 S9        29.88F
$$

 *****  WEATHER ACROSS CENTRAL AND WESTERN NORTH DAKOTA  *****

CITY           SKY/WX    TMP DP  RH WIND       PRES   REMARKS
JAMESTOWN      SUNNY     81  65  58 S14       29.82F
BISMARCK       SUNNY     81  67  62 S13       29.79F
MINOT          SUNNY     82  62  50 S15       29.74F HAZE
MINOT AFB      SUNNY     83  71  65 S15       29.73F
GARRISON         N/A     79  67  66 S10       29.77F
WILLISTON      SUNNY     85  63  47 VRB7      29.73F
DICKINSON      SUNNY     82  66  58 S8        29.78F
HETTINGER      SUNNY     80  65  59 S6        29.82S
$$

 *****  OTHER OBSERVATIONS NORTHEAST NORTH DAKOTA  *****

CITY           SKY/WX    TMP DP  RH WIND       PRES   REMARKS
WALHALLA       FAIR      81  75  83 MISG      29.79S HAZE
LANGDON        FAIR      81  70  69 SW13      29.82S HAZE
CAVALIER       FAIR      81  68  65 S13       29.79F HAZE
GRAFTON        FAIR      81  70  69 S9G16     29.82S HAZE
CANDO          FAIR      81  68  65 S13G18    29.79F
FORT TOTTEN      N/A     81  66  60 S9        29.95S
ROLLA            N/A     77  68  73 S10       29.80F
RUGBY          NOT AVBL
 ***** THE ABOVE OBSERVATIONS ARE NON NWS ARE NOT QUALITY
        CONTROLLED AND MAY MIS-REPORT RAIN FOR SNOW...
$$

 *****  OTHER OBSERVATIONS SOUTHEAST NORTH DAKOTA *****

CITY           SKY/WX    TMP DP  RH WIND       PRES   REMARKS
COOPERSTOWN    NOT AVBL
VALLEY CITY    FAIR      79  72  78 S12       29.85F
OAKES            N/A     77  72  83 SE13      29.85F
GWINNER        FAIR      81  66  61 S10       29.87F
SHEYENNE NWR     N/A     81  66  61 S10       29.95
BUFFALO        NOT AVBL
WYNDMERE       NOT AVBL
 ***** THE ABOVE OBSERVATIONS ARE NON NWS ARE NOT QUALITY
       CONTROLLED AND MAY MIS-REPORT RAIN FOR SNOW...
$$

  *****  WEATHER ACROSS NORTHERN MINNESOTA  *****

CITY           SKY/WX    TMP DP  RH WIND       PRES   REMARKS
FLAG ISLAND    SUNNY     72  63  73 S7        29.87R
WARROAD        SUNNY     75  66  73 S7        29.88S HAZE
ROSEAU         SUNNY     79  66  65 S9        29.86S HAZE
HALLOCK        SUNNY     79  68  69 S14       29.81F HAZE
THF RVR FALLS  SUNNY     79  64  61 S9        29.87F
HALSTAD        NOT AVBL
FOSSTON        SUNNY     75  64  69 S8        29.90S HAZE
BAUDETTE       SUNNY     76  59  55 S9        29.89F
WASKISH        SUNNY     77  61  57 SE6       29.90F
CROOKSTON      SUNNY     79  66  65 S14       29.85F HAZE
$$
  *****  WEATHER ACROSS CENTRAL AND WEST MINNESOTA  *****

CITY           SKY/WX    TMP DP  RH WIND       PRES   REMARKS
BEMIDJI        SUNNY     77  59  54 S9        29.92F
PARK RAPIDS    CLOUDY    78  59  51 SE10      29.93S HAZE
WADENA         SUNNY     79  63  57 S10       29.92S HAZE
DETROIT LAKES  SUNNY     79  63  57 S10       29.92F HAZE
MOORHEAD       SUNNY     79  68  69 S9G16     29.87F HAZE
FERGUS FALLS   SUNNY     79  66  65 S8        29.89F HAZE
ELBOW LAKE     FAIR      78  67  69 S7        29.91F
MORRIS MN      SUNNY     81  66  61 S8        29.91F
STAPLES        SUNNY     77  61  57 S7        29.93S HAZE
WHEATON        SUNNY     77  64  65 S8        29.90F
$$
  *****  WEATHER ELSEWHERE ACROSS MINNESOTA  *****

CITY           SKY/WX    TMP DP  RH WIND       PRES   REMARKS
DULUTH         MOSUNNY   73  59  61 SE8       29.97S
INTRNTL FALLS  MOSUNNY   76  58  53 VRB7      29.92F
ELY            SUNNY     73  50  43 SE5       29.96F
CLOQUET        SUNNY     73  57  56 SE6       29.96F
BRAINERD       MOSUNNY   78  60  53 VRB7      29.94S HAZE
HIBBING        SUNNY     77  54  44 VRB6      29.95F
ALEXANDRIA     SUNNY     78  65  63 S7        29.94F HAZE
SAINT CLOUD    SUNNY     79  65  62 VRB5      29.93F HAZE
MINNEAPOLIS    PTSUNNY   80  64  58 S6        29.94S HAZE
$$

  *****  WEATHER ACROSS SOUTH DAKOTA  *****

CITY           SKY/WX    TMP DP  RH WIND       PRES   REMARKS
SIOUX FALLS    PTSUNNY   78  65  63 S7        29.94F
BROOKINGS      SUNNY     75  64  69 S13       29.95F
WATERTOWN      SUNNY     78  65  63 S12       29.91F
HURON          MOSUNNY   79  67  66 S13       29.87S
SISSETON         N/A     80  64  58 S12       29.87F
ABERDEEN       SUNNY     80  68  66 S14       29.85F
MITCHELL       MOSUNNY   80  69  69 SE13      29.89F
PIERRE         MOSUNNY   81  68  64 S10       29.81F
MOBRIDGE       SUNNY     81  69  67 SE14      29.79F
RAPID CITY     SUNNY     82  68  62 S6        29.84F
$$

  *****  SOME WEATHER IN NEARBY STATES *****

CITY           SKY/WX    TMP DP  RH WIND       PRES   REMARKS
GLASGOW MT     SUNNY     88  54  31 VRB3      29.70F
GREAT FALLS MT SUNNY     77  52  41 NW17      29.90R
CHEYENNE WY    SUNNY     85  48  27 N12       30.06S
SCOTTSBLUFF NE SUNNY     81  64  56 SE9G16    29.92F
OMAHA NE       PTSUNNY   78  59  51 SE8       30.00S
DES MOINES IA  MOSUNNY   78  58  49 VRB5      30.01S
DAVENPORT IA   SUNNY     76  60  57 VRB5      30.03S
CHICAGO IL     SUNNY     76  54  46 S6        30.01R
EAU CLAIRE WI  SUNNY     78  63  59 W3        29.95F
LA CROSSE WI   SUNNY     79  61  53 S6        29.97S
$$

  *****  SOME NATIONAL WEATHER *****

CITY           SKY/WX    TMP DP  RH WIND       PRES   REMARKS
LA GUARDIA NY  LGT RAIN  71  61  70 NE9       29.95F
RALEIGH NC     PTSUNNY   81  70  69 W8        29.99S
ATLANTA GA     CLOUDY    74  68  81 W6        30.11F
NEW ORLEANS LA PTSUNNY   92  71  50 SW12      30.06F HX  98
OKLAHOMA CITY  MOSUNNY   84  73  69 S10       29.98S HX  90
ALBUQUERQUE NM MOSUNNY   80  56  43 S7        30.16F
SALT LAKE CITY PTSUNNY   88  50  27 SE8       29.94F
LOS ANGELES CA CLOUDY    66  60  81 W10       29.91S
BOISE ID       MOSUNNY   85  46  25 W7        29.87S
SEATTLE WA     SUNNY     72  55  55 VRB3      29.90S
$$

*** WEATHER ACROSS MANITOBA...SASKATCHEWAN AND ONTARIO ***
                ***ONTARIO***

CITY           SKY/WX    TMP DP  RH WIND       PRES   REMARKS
GERALDTON      CLOUDY    70  52  52 NW3       29.98F
THUNDER BAY    CLOUDY    72  59  64 NE3       29.98S
SIOUX LOOKOUT  CLOUDY    73  57  56 SW10      29.92F
TORONTO        MOSUNNY   75  54  46 VRB7      29.95S
BIG TROUT LK   PTSUNNY   68  54  60 S10       29.81F
PICKLE LAKE    PTSUNNY   73  55  53 SW13      29.89F
DRYDEN         SUNNY     73  55  53 S9        29.91F
KENORA         MOSUNNY   73  59  60 SW10G18   29.89S
$$
                *** MANITOBA***

CITY           SKY/WX    TMP DP  RH WIND       PRES   REMARKS
BRANDON        PTSUNNY   79  70  73 SW6       29.74F SMOKE
DAUPHIN        SUNNY     75  66  73 SW6       29.70F HAZE
ISLAND LAKE    CLOUDY    64  63  94 SE7       29.67F
PILOT MOUND      N/A     79  68  69 S14G20      N/A
THE PAS        SMOKE     68  59  73 NW7       29.67S VSB 1
THOMPSON       CLOUDY    66  63  88 W8        29.58R SMOKE
WINNIPEG       SUNNY     79  68  69 S16       29.77F SMOKE
LYNN LAKE      CLOUDY    64  57  77 NW13G21   29.61S HAZE
CHURCHILL      LGT RAIN  45  43  93 E26G37    29.71F
GILLAM         CLOUDY    64  59  82 S7        29.60
$$
                ***SASKATCHEWAN***

CITY           SKY/WX    TMP DP  RH WIND       PRES   REMARKS
ESTEVAN        NOT AVBL
KINDERSLEY     NOT AVBL
LLOYDMINSTER   SMOKE     64  50  59 N8        29.87F VSB 1
PRINCE ALBERT    N/A     68  54  60 N6        29.76F SMOKE
REGINA         PTSUNNY   73  63  68 N7        29.76S


USA.gov is the U.S. government's official web portal to all federal, state and local government web resources and services.